[[{"header":{"parameterUnit":"m.s-1","parameterCategory":1,"la1":30.2991,"la2":30.254,"lo1":-89.0895,"lo2":-89.0444,"dy":0.0017,"dx":0.0017,"nx":28,"ny":28,"refTime":"2024-07-27T21:00:00:Z","depth":0,"parameterNumber":2,"parameterNumberName":"U-component_of_WINDS"},"data":[0,0,0,0,0,0,0,0,0,0,0,0,0,0,0,0,0,0,0,0,0,0,0,0,0,0,0,0,0,0,0,0,0,0,0,0,0,0,0,0,0,0,0,0,0,0,0,0,0,0,0,0,0,0,0,0,0,0,0.9029,0.903,0,0.9062,0.9063,0.9063,0.9058,0.9058,0.9057,0.9057,0.9089,0.909,0.9091,0,0,0,0,0,0,0,0,0,0,0,0,0,0.8959,0.896,0.9029,0.903,0.903,0.9062,0.9063,0.9063,0.9058,0.9058,0.9057,0.9056,0.9088,0.909,0.9091,0,0,0,0,0,0,0,0,0,0,0,0,0,0.8991,0.8961,0.9029,0.9032,0.9032,0.9062,0.9063,0.9063,0.9058,0.9058,0.9057,0.9056,0.9088,0.909,0.9092,0.9121,0,0,0.9098,0.9099,0,0,0,0,0,0,0,0,0.8989,0.8993,0.9031,0.9031,0.9032,0.9055,0.905,0.9082,0.9059,0.9048,0.9057,0.9056,0.9078,0.9081,0.9089,0.9122,0.9124,0.9098,0.9099,0.91,0.9101,0,0,0,0,0,0,0,0.8987,0.8992,0.9042,0.9031,0.9032,0.903,0.9034,0.9056,0.9067,0.9049,0.9049,0.9053,0.9078,0.9087,0.9089,0.9124,0.9098,0.91,0.9101,0.9102,0.918,0.9181,0,0,0,0,0,0,0.8984,0.899,0.9041,0.9043,0.9008,0.9032,0.9036,0.9049,0.9067,0.9069,0.9054,0.9053,0.9084,0.9087,0.9091,0.9124,0.91,0.9102,0.9103,0.9179,0.918,0.9181,0,0,0,0,0,0,0.8983,0.8989,0.904,0.9016,0.9023,0.9034,0.9048,0.905,0.9058,0.9071,0.9072,0.906,0.9083,0.9088,0.9113,0.9125,0.9103,0.9105,0.9178,0.918,0.9181,0.9192,0,0,0,0,0,0,0.8981,0.8988,0.9,0.9017,0.9024,0.9062,0.9049,0.9051,0.9062,0.9061,0.9077,0.9079,0.9083,0.911,0.9115,0.9127,0.9106,0.9177,0.9179,0.918,0.919,0.9193,0.9196,0,0,0,0,0,0.8978,0.9002,0.9001,0.9007,0.9039,0.9063,0.9067,0.9071,0.9063,0.9074,0.9082,0.9079,0.9123,0.9112,0.9118,0.9131,0.9176,0.9178,0.918,0.9189,0.9193,0.9196,0,0,0,0,0,0,0.8987,0.9004,0.9003,0.9034,0.9047,0.9062,0.9077,0.9075,0.9091,0.9089,0.9093,0.9097,0.9122,0.9129,0.9117,0.9159,0.9148,0.9152,0.9153,0.9157,0.9159,0.9157,0.9108,0,0,0,0,0,0.8992,0.9011,0.9025,0.905,0.9057,0.9066,0.9076,0.9078,0.9092,0.9097,0.9107,0.912,0.9136,0.9147,0.9163,0.9192,0.9194,0.9204,0.9206,0.9208,0.9211,0.9224,0.9228,0.9187,0.9187,0.9187,0,0,0.9003,0.9015,0.9027,0.9052,0.9063,0.908,0.9071,0.909,0.9103,0.91,0.9124,0.9131,0.9146,0.9172,0.9184,0.9179,0.9222,0.9211,0.9213,0.9214,0.9226,0.923,0.9234,0.9189,0.9189,0.9188,0,0,0.9033,0.9044,0.9066,0.9076,0.9092,0.9098,0.9103,0.9118,0.9123,0.9147,0.9145,0.916,0.9189,0.9198,0.9207,0.9238,0.9235,0.9244,0.9257,0.927,0.9273,0.9276,0.9286,0.9289,0.9246,0.9246,0.9246,0,0.9044,0.9072,0.9077,0.9096,0.9106,0.9105,0.9125,0.9135,0.9156,0.9162,0.9157,0.9192,0.9201,0.9229,0.9236,0.9244,0.9249,0.9241,0.9273,0.9276,0.9278,0.9287,0.9291,0.9247,0.9247,0.9247,0.9247,0,0.9084,0.9103,0.9119,0.9138,0.915,0.917,0.9177,0.9188,0.9189,0.9194,0.9218,0.9229,0.9247,0.9254,0.9255,0.9281,0.9277,0.9272,0.9261,0.9283,0.9291,0.9295,0.9248,0.9248,0.9247,0.9247,0,0,0.912,0.9141,0.9146,0.9154,0.9171,0.9185,0.9205,0.9222,0.9231,0.9245,0.9259,0.9283,0.9278,0.9288,0.929,0.9302,0.9323,0.9295,0.9296,0.9299,0.935,0.9353,0.9357,0.9322,0.9323,0.9323,0.9348,0,0.9149,0.9184,0.9188,0.9218,0.9234,0.9232,0.9249,0.926,0.9266,0.928,0.9285,0.9302,0.9295,0.9301,0.9312,0.9318,0.9333,0.9317,0.9334,0.9335,0.9329,0.9361,0.9365,0.9388,0.9352,0.9353,0.9353,0,0.9188,0.9203,0.9234,0.9247,0.9254,0.9269,0.9284,0.9298,0.931,0.9313,0.9324,0.9324,0.9342,0.9331,0.9355,0.9344,0.9351,0.9355,0.9356,0.9357,0.9344,0.9361,0.9396,0.9399,0.9358,0.9358,0.9358,0,0.9209,0.9236,0.9258,0.9265,0.9281,0.9291,0.9298,0.931,0.932,0.9333,0.9338,0.9353,0.9361,0.9372,0.9376,0.9368,0.9399,0.9389,0.9401,0.9401,0.9407,0.9406,0.9441,0.9414,0.9414,0.9414,0.9414,0,0.924,0.9259,0.9267,0.928,0.9301,0.9305,0.9325,0.9331,0.9341,0.9355,0.9355,0.9367,0.9372,0.9385,0.9388,0.9406,0.941,0.9412,0.9412,0.9411,0.9411,0.9415,0.9413,0.9415,0.9414,0.9414,0.9414,0,0.9266,0.9272,0.9296,0.9309,0.9312,0.9327,0.9337,0.935,0.9355,0.9372,0.9376,0.9384,0.9399,0.9404,0.9422,0.9424,0.9445,0.9444,0.9441,0.944,0.9451,0.9449,0.9489,0.9494,0.9465,0.9465,0.9465,0,0.9285,0.9299,0.9313,0.9323,0.933,0.9345,0.9354,0.9359,0.9368,0.9383,0.9393,0.9408,0.942,0.9444,0.945,0.9464,0.9463,0.9476,0.9465,0.9463,0.9461,0.9459,0.946,0.9477,0.9478,0.9478,0.9478,0,0.9317,0.9319,0.9333,0.9348,0.9359,0.9371,0.9382,0.9389,0.9395,0.9406,0.9421,0.9431,0.9449,0.9463,0.9477,0.9483,0.9481,0.9482,0.9485,0.9483,0.948,0.948,0.9445,0.948,0.948,0.948,0.948,0.948,0.9338,0.935,0.9362,0.9377,0.9386,0.9396,0.9408,0.9414,0.9427,0.9442,0.9444,0.946,0.947,0.9488,0.9495,0.9507,0.9503,0.9508,0.9509,0.951,0.951,0.9479,0.951,0.951,0.951,0.951,0.951,0,0.9369,0.9376,0.939,0.9406,0.9417,0.9415,0.9427,0.9436,0.9451,0.9461,0.9472,0.9489,0.9503,0.951,0.9523,0.9531,0.9531,0.9535,0.9533,0.9534,0.9514,0.9509,0.9535,0.9535,0.9535,0.9535,0.9535,0.9535,0.9386,0.9406,0.9409,0.9432,0.9439,0.9455,0.9462,0.9471,0.9479,0.9497,0.9509,0.9514,0.9522,0.9536,0.9548,0.9549,0.9553,0.9557,0.9559,0.9539,0.9536,0.9534,0.9529,0.9559,0.9559,0.9578,0.9578,0.9578]},{"header":{"parameterUnit":"m.s-1","parameterCategory":1,"la1":30.2991,"la2":30.254,"lo1":-89.0895,"lo2":-89.0444,"dy":0.0017,"dx":0.0017,"nx":28,"ny":28,"refTime":"2024-07-27T21:00:00:Z","depth":0,"parameterNumber":3,"parameterNumberName":"V-component_of_WINDS"},"data":[0,0,0,0,0,0,0,0,0,0,0,0,0,0,0,0,0,0,0,0,0,0,0,0,0,0,0,0,0,0,0,0,0,0,0,0,0,0,0,0,0,0,0,0,0,0,0,0,0,0,0,0,0,0,0,0,0,0,2.1994,2.1995,0,2.2098,2.2099,2.21,2.2105,2.2104,2.2102,2.2101,2.2205,2.2209,2.2213,0,0,0,0,0,0,0,0,0,0,0,0,0,2.1794,2.1798,2.1994,2.1995,2.1996,2.2098,2.2099,2.2101,2.2105,2.2104,2.2102,2.2101,2.2204,2.2209,2.2213,0,0,0,0,0,0,0,0,0,0,0,0,0,2.1888,2.1799,2.1993,2.2011,2.2013,2.2097,2.2099,2.2101,2.2105,2.2103,2.2102,2.21,2.2203,2.2208,2.2214,2.2287,0,0,2.2232,2.2235,0,0,0,0,0,0,0,0,2.1883,2.1895,2.2007,2.201,2.2013,2.2087,2.2067,2.2163,2.2106,2.207,2.2101,2.2099,2.2167,2.2176,2.2199,2.2292,2.2297,2.2233,2.2236,2.2239,2.224,0,0,0,0,0,0,0,2.1876,2.1891,2.2035,2.2008,2.2012,2.2012,2.2023,2.2085,2.2128,2.2073,2.2074,2.2086,2.2168,2.2194,2.2202,2.2298,2.2232,2.2238,2.2241,2.2244,2.2454,2.2456,0,0,0,0,0,0,2.1867,2.1885,2.2031,2.2038,2.1942,2.2017,2.203,2.2065,2.2127,2.2135,2.2088,2.2086,2.2185,2.2195,2.2205,2.2294,2.2239,2.2244,2.2247,2.2452,2.2454,2.2457,0,0,0,0,0,0,2.1862,2.188,2.2027,2.1962,2.1981,2.2023,2.2062,2.2068,2.2093,2.2138,2.2145,2.2106,2.2184,2.2197,2.2267,2.2298,2.2247,2.2252,2.2449,2.2453,2.2455,2.2472,0,0,0,0,0,0,2.1857,2.1878,2.1907,2.1963,2.1984,2.2088,2.2064,2.2071,2.2103,2.2102,2.2157,2.2164,2.2183,2.2258,2.2272,2.2305,2.2257,2.2447,2.2451,2.2454,2.2469,2.2476,2.2481,0,0,0,0,0,2.185,2.1908,2.1909,2.1927,2.2022,2.209,2.2102,2.2123,2.2106,2.2135,2.2164,2.2163,2.2292,2.2265,2.2281,2.2316,2.2445,2.245,2.2454,2.2467,2.2474,2.2481,0,0,0,0,0,0,2.1855,2.1916,2.1917,2.1996,2.2037,2.209,2.2128,2.2131,2.2178,2.2175,2.2198,2.221,2.2279,2.2304,2.2273,2.2389,2.2366,2.2374,2.237,2.2378,2.2384,2.2376,2.2262,0,0,0,0,0,2.1865,2.1917,2.1966,2.203,2.2051,2.2086,2.2116,2.2129,2.2173,2.219,2.2224,2.2266,2.2316,2.2348,2.2397,2.2473,2.2484,2.2505,2.2511,2.2515,2.2522,2.2562,2.2572,2.2472,2.2472,2.2472,0,0,2.1887,2.1927,2.1957,2.2032,2.2066,2.2117,2.2101,2.2156,2.2194,2.2199,2.2266,2.2292,2.234,2.2413,2.2446,2.2436,2.2552,2.2521,2.2525,2.2529,2.2568,2.2577,2.2586,2.2475,2.2474,2.2474,0,0,2.1953,2.1989,2.2045,2.2079,2.2131,2.2153,2.2167,2.2219,2.2237,2.2305,2.2309,2.2354,2.244,2.2473,2.2502,2.2578,2.2579,2.2593,2.2624,2.2664,2.2671,2.2678,2.2705,2.2714,2.26,2.26,2.26,0,2.1973,2.2052,2.2074,2.2129,2.2161,2.2168,2.2224,2.2256,2.232,2.2342,2.233,2.2437,2.247,2.2549,2.2568,2.2591,2.2606,2.2587,2.2669,2.2676,2.2683,2.2708,2.2718,2.2601,2.2601,2.2601,2.2601,0,2.2073,2.2127,2.2167,2.2229,2.2266,2.2321,2.235,2.2384,2.2393,2.2416,2.2484,2.2524,2.258,2.26,2.2609,2.268,2.2672,2.2664,2.2641,2.2693,2.2717,2.2727,2.2603,2.2603,2.2602,2.2602,0,0,2.2147,2.2219,2.2233,2.2261,2.2318,2.236,2.2414,2.247,2.2498,2.2541,2.2587,2.2659,2.2651,2.2683,2.2696,2.2731,2.2787,2.2718,2.272,2.2729,2.2866,2.2872,2.2882,2.2787,2.2789,2.2791,2.2862,0,2.2218,2.2317,2.2337,2.2422,2.2471,2.2478,2.2525,2.2564,2.2587,2.2631,2.2655,2.2705,2.2692,2.2711,2.2746,2.2773,2.2815,2.2768,2.2829,2.2831,2.2816,2.2895,2.2901,2.2967,2.2871,2.2873,2.2874,0,2.2315,2.2361,2.2451,2.25,2.2521,2.2563,2.2615,2.2657,2.2701,2.2715,2.275,2.2759,2.2814,2.2789,2.2865,2.2832,2.2858,2.2875,2.2878,2.2884,2.2855,2.2903,2.2988,2.2997,2.2889,2.2888,2.2887,0,2.2357,2.2442,2.2507,2.253,2.2589,2.2618,2.2644,2.2686,2.2717,2.2762,2.2782,2.2832,2.2859,2.2897,2.2918,2.2898,2.2992,2.2969,2.3004,2.3003,2.3023,2.3022,2.3113,2.3041,2.3041,2.3041,2.3041,0,2.2435,2.2489,2.2526,2.2566,2.2626,2.2649,2.2707,2.2733,2.277,2.2813,2.2821,2.2862,2.2888,2.2931,2.2948,2.3007,2.302,2.3031,2.3035,2.3031,2.3029,2.3048,2.3043,2.3043,2.3043,2.3042,2.3042,0,2.2493,2.252,2.2591,2.264,2.2654,2.2696,2.2738,2.2776,2.2798,2.2853,2.2867,2.2901,2.2953,2.2978,2.3041,2.3053,2.312,2.3121,2.3105,2.3106,2.314,2.3136,2.3246,2.3261,2.3179,2.318,2.3181,0,2.254,2.2582,2.2636,2.2666,2.2692,2.2741,2.2773,2.2795,2.2828,2.288,2.2911,2.2963,2.3006,2.3087,2.3117,2.3166,2.3168,2.3203,2.3175,2.3168,2.3167,2.3164,2.3168,2.3208,2.3208,2.3209,2.321,0,2.2621,2.2632,2.2678,2.2729,2.2766,2.2807,2.2847,2.2871,2.2899,2.2935,2.2988,2.3022,2.3087,2.3137,2.3188,2.3213,2.3216,2.3218,2.3229,2.3224,2.3213,2.3218,2.3118,2.3215,2.3215,2.3214,2.3214,2.3214,2.2675,2.2711,2.2755,2.2805,2.2838,2.2875,2.2912,2.2939,2.2984,2.3039,2.3049,2.3105,2.3145,2.3213,2.324,2.3283,2.3275,2.329,2.3294,2.3297,2.3299,2.3206,2.3292,2.3292,2.3292,2.3292,2.3292,0,2.2755,2.2783,2.2829,2.2884,2.2924,2.2923,2.2967,2.3,2.3049,2.3087,2.3129,2.3189,2.3238,2.3271,2.3321,2.3349,2.3351,2.3361,2.3359,2.3364,2.3304,2.3289,2.3358,2.3358,2.3358,2.3358,2.3358,2.3358,2.2801,2.2863,2.2879,2.2957,2.2984,2.3039,2.3064,2.3097,2.3128,2.3194,2.3235,2.3257,2.3293,2.3345,2.3389,2.3397,2.3415,2.3425,2.3433,2.3375,2.3368,2.3362,2.3348,2.3428,2.3428,2.3489,2.349,2.349]}]]